FW4805 Weather Reports


Display with metric or nautical units.
time (UTC)temp
F
wind
direction
speed
MPH
gust
MPH
rain 1hr
in
rain 24hr
in
rain mn
in
humidity
%
barometer
mb
20260506224001 65 278 3.0 7.0 0.00 0.00 0.00 48 1015.4
20260506223001 65 272 5.0 11.0 0.00 0.00 0.00 49 1015.6
20260506222001 66 271 6.0 11.0 0.00 0.00 0.00 48 1015.6
20260506221001 66 270 4.0 11.0 0.00 0.00 0.00 49 1015.7
20260506215001 66 275 3.0 7.0 0.00 0.00 0.00 50 1015.7
20260506214000 66 273 5.0 10.0 0.00 0.00 0.00 51 1015.6
20260506213000 66 275 5.0 10.0 0.00 0.00 0.00 52 1015.7
20260506212000 66 274 6.0 8.0 0.00 0.00 0.00 51 1015.6
20260506211000 66 272 8.0 10.0 0.00 0.00 0.00 51 1015.6
20260506205001 66 271 7.0 10.0 0.00 0.00 0.00 49 1015.5
20260506204001 66 270 7.0 11.0 0.00 0.00 0.00 49 1015.6
20260506203001 66 275 6.0 10.0 0.00 0.00 0.00 48 1015.5
20260506202001 66 274 6.0 8.0 0.00 0.00 0.00 48 1015.6
20260506201001 66 274 6.0 8.0 0.00 0.00 0.00 48 1015.5
20260506200001 66 274 7.0 8.0 0.00 0.00 0.00 49 1015.5
20260506195001 66 273 6.0 10.0 0.00 0.00 0.00 49 1015.3
20260506194001 66 270 5.0 11.0 0.00 0.00 0.00 50 1015.4
20260506193001 65 270 6.0 8.0 0.00 0.00 0.00 50 1015.3
20260506191001 65 272 4.0 7.0 0.00 0.00 0.00 51 1015.2
20260506190001 66 272 5.0 8.0 0.00 0.00 0.00 51 1015.2
20260506185001 66 273 4.0 7.0 0.00 0.00 0.00 51 1015.0
20260506184001 67 276 5.0 8.0 0.00 0.00 0.00 50 1015.0
20260506183001 66 273 5.0 8.0 0.00 0.00 0.00 51 1014.9
20260506181001 66 276 4.0 7.0 0.00 0.00 0.00 51 1014.8
20260506180001 67 275 5.0 11.0 0.00 0.00 0.00 51 1014.6
20260506175001 67 270 6.0 10.0 0.00 0.00 0.00 51 1014.6
20260506174001 67 267 6.0 16.0 0.00 0.00 0.00 51 1014.4
20260506172001 67 266 6.0 10.0 0.00 0.00 0.00 50 1014.5
20260506170001 68 270 3.0 11.0 0.00 0.00 0.00 51 1014.3
20260506165001 68 272 7.0 13.0 0.00 0.00 0.00 50 1014.3
20260506163001 68 272 6.0 14.0 0.00 0.00 0.00 52 1014.4
20260506162001 69 272 8.0 13.0 0.00 0.00 0.00 51 1014.4
20260506161001 69 279 7.0 12.0 0.00 0.00 0.00 49 1014.4
20260506155001 70 267 10.0 18.0 0.00 0.00 0.00 49 1014.5
20260506154001 71 265 9.0 14.0 0.00 0.00 0.00 49 1014.4
20260506153000 71 266 11.0 18.0 0.00 0.00 0.00 48 1014.4
20260506152001 71 259 10.0 16.0 0.00 0.00 0.00 47 1014.5
20260506151001 72 253 7.0 11.0 0.00 0.00 0.00 47 1014.3
20260506150001 72 252 9.0 14.0 0.00 0.00 0.00 47 1014.4
20260506144001 72 270 11.0 16.0 0.00 0.00 0.00 48 1014.6
20260506143001 72 270 11.0 14.0 0.00 0.00 0.00 51 1014.7
20260506142001 72 264 11.0 16.0 0.00 0.00 0.00 51 1014.6
20260506141001 73 267 12.0 17.0 0.00 0.00 0.00 51 1014.8
20260506140001 73 268 11.0 14.0 0.00 0.00 0.00 50 1014.7
20260506135001 74 261 9.0 14.0 0.00 0.00 0.00 51 1014.7
20260506134001 74 267 7.0 14.0 0.00 0.00 0.00 51 1014.8
20260506133001 74 270 4.0 11.0 0.00 0.00 0.00 51 1014.7
20260506131001 72 94 4.0 8.0 0.00 0.00 0.00 54 1014.9
20260506130001 71 87 7.0 10.0 0.00 0.00 0.00 53 1015.0
20260506125001 72 78 7.0 10.0 0.00 0.00 0.00 51 1015.0
20260506124001 72 92 7.0 10.0 0.00 0.00 0.00 45 1015.1
20260506123001 73 98 7.0 11.0 0.00 0.00 0.00 42 1015.0
20260506122001 72 99 9.0 12.0 0.00 0.00 0.00 48 1015.1
20260506121001 74 87 8.0 12.0 0.00 0.00 0.00 43 1015.2
20260506120001 74 116 4.0 8.0 0.00 0.00 0.00 48 1015.2
20260506115001 74 86 7.0 10.0 0.00 0.00 0.00 47 1015.2
20260506113001 74 90 3.0 8.0 0.00 0.00 0.00 41 1015.4
20260506112001 75 100 4.0 11.0 0.00 0.00 0.00 40 1015.3
20260506111001 74 176 6.0 10.0 0.00 0.00 0.00 41 1015.3
20260506110001 76 254 4.0 10.0 0.00 0.00 0.00 45 1015.3
20260506105001 76 257 5.0 11.0 0.00 0.00 0.00 44 1015.2
20260506104001 74 270 8.0 13.0 0.00 0.00 0.00 45 1015.2
20260506103001 73 268 12.0 16.0 0.00 0.00 0.00 47 1015.2
20260506102001 73 261 11.0 14.0 0.00 0.00 0.00 46 1015.2
20260506101001 73 265 12.0 17.0 0.00 0.00 0.00 44 1015.2
20260506100001 74 263 10.0 17.0 0.00 0.00 0.00 44 1015.1
20260506095002 73 265 11.0 16.0 0.00 0.00 0.00 44 1015.2
20260506094002 73 266 11.0 16.0 0.00 0.00 0.00 43 1015.3
20260506093001 73 261 11.0 17.0 0.00 0.00 0.00 42 1015.2
20260506091001 74 262 10.0 14.0 0.00 0.00 0.00 41 1015.1
20260506090001 73 261 10.0 16.0 0.00 0.00 0.00 39 1015.2
20260506085001 74 260 8.0 14.0 0.00 0.00 0.00 39 1015.1
20260506084001 73 260 10.0 13.0 0.00 0.00 0.00 40 1015.0
20260506083001 73 254 8.0 13.0 0.00 0.00 0.00 39 1014.9
20260506082001 74 257 7.0 11.0 0.00 0.00 0.00 38 1014.9
20260506081001 73 258 8.0 13.0 0.00 0.00 0.00 39 1014.9
20260506073001 72 247 5.0 11.0 0.00 0.00 0.00 42 1014.6
20260506072002 72 258 8.0 13.0 0.00 0.00 0.00 43 1014.6
20260506071001 71 253 7.0 12.0 0.00 0.00 0.00 41 1014.6
20260506062001 70 254 7.0 13.0 0.00 0.00 0.00 43 1014.6
20260506061001 70 228 5.0 10.0 0.00 0.00 0.00 44 1014.6
20260506051002 64 269 0.0 2.0 0.00 0.00 0.00 59 1014.5
20260506045002 60 0 0.0 0.0 0.00 0.00 0.00 66 1014.6
20260506044002 57 0 0.0 0.0 0.00 0.00 0.00 71 1014.4
20260506043002 56 0 0.0 0.0 0.00 0.00 0.00 72 1014.5
20260506042002 53 0 0.0 0.0 0.00 0.00 0.00 74 1014.4
20260506041002 53 0 0.0 0.0 0.00 0.00 0.00 75 1014.3
20260506034001 50 0 0.0 0.0 0.00 0.00 0.00 77 1014.1
20260506033001 49 0 0.0 0.0 0.00 0.00 0.00 77 1014.0
20260506032001 50 0 0.0 0.0 0.00 0.00 0.00 76 1014.1
20260506031001 50 0 0.0 0.0 0.00 0.00 0.00 76 1013.9
20260506030001 50 0 0.0 0.0 0.00 0.00 0.00 76 1013.9
20260506024001 50 0 0.0 0.0 0.00 0.00 0.00 75 1014.1
20260506023002 50 0 0.0 0.0 0.00 0.00 0.00 76 1014.0
20260506022002 50 0 0.0 0.0 0.00 0.00 0.00 75 1014.0
20260506021002 50 0 0.0 0.0 0.00 0.00 0.00 75 1014.0
20260506020002 50 0 0.0 0.0 0.00 0.00 0.00 75 1014.0
20260506015002 50 0 0.0 0.0 0.00 0.00 0.00 75 1014.1
20260506014002 50 0 0.0 0.0 0.00 0.00 0.00 74 1014.1
20260506013002 51 0 0.0 0.0 0.00 0.00 0.00 73 1014.2
20260506011002 51 276 0.0 1.0 0.00 0.00 0.00 73 1014.0
20260506005002 52 276 0.0 2.0 0.00 0.00 0.00 71 1014.2
20260506004001 52 0 0.0 0.0 0.00 0.00 0.00 71 1014.1
20260506003001 53 0 0.0 0.0 0.00 0.00 0.00 71 1014.2
20260506002001 53 0 0.0 0.0 0.00 0.00 0.00 71 1014.2
20260506000002 52 276 0.0 1.0 0.00 0.00 0.00 72 1014.2
20260505234002 53 276 0.0 1.0 0.00 0.00 0.00 71 1014.1
20260505233002 52 0 0.0 0.0 0.00 0.00 0.00 72 1014.3
20260505232002 53 0 0.0 0.0 0.00 0.00 0.00 72 1014.2
20260505231001 53 276 0.0 1.0 0.00 0.00 0.00 72 1014.2
20260505230001 52 276 0.0 1.0 0.00 0.00 0.00 73 1014.2
20260505225001 52 276 0.0 1.0 0.00 0.00 0.00 72 1014.3